Terminal Aerodrome Forecast
Issued by NWS Sterling, VA

Current Version | Previous Version | Text Only | Print | Product List | Glossary On
Versions: 1 2 3 4 5 6 7 8 9 10 11 12 13 14 15 16 17 18 19 20
000
FTUS41 KLWX 201500 AAA
TAFMRB
TAF AMD
KMRB 201500Z 2015/2112 12003KT P6SM BKN020 OVC050
     FM201700 13006KT P6SM BKN050
     FM210900 00000KT P6SM OVC025=

USA.gov is the U.S. government's official web portal to all federal, state and local government web resources and services.